Location: Demmingen
(48.6757°N, 10.4375°E)
Time: 23:15:14
(UTC+00:00)

Cosmos 1833 Rocket - Pass Details

Date: 23 May 2024
Orbit: 832 x 839 km, 71.0° (Epoch: 14 June)

Event Time Altitude Azimuth Distance (km) Brightness Sun altitude
Exits shadow 00:08:17 19° 248° (WSW) 1,898 4.2 -19.7°
Maximum altitude 00:11:54 40° 308° (NW) 1,215 3.7 -19.5°
Drops below altitude 10° 00:17:11 10° 18° (NNE) 2,455 6.4 -19.3°
Sets 00:19:48 0° 26° (NNE) 3,393 7.4 -19.2°
